Lapse_Rate
5.4 8.7 9.6 8.9 6.5 6.5 6.5 6.5 6.5 6.5 6.5 7.3 7.6 7.0 6.6 7.1 6.5 6.5 8.2 8.8 9.6 9.2 8.5 7.1 6.0 5.7 5.8 5.7 5.7 5.6 5.5 5.5 5.6 5.7 5.8 5.9 6.0 6.1 6.1 6.1 6.1 6.1 6.0 6.0 6.1 6.1 6.1 6.0 5.9
9.7 9.7 9.2 7.9 6.5 6.5 6.5 6.5 6.5 6.5 7.0 7.6 7.5 7.4 6.9 6.5 8.2 7.9 7.1 9.2 8.7 8.1 8.2 7.0 5.5 5.5 5.3 5.3 5.1 5.2 5.3 5.3 5.3 5.3 5.4 5.5 5.7 5.8 5.9 6.0 6.0 5.9 5.8 5.9 6.0 6.0 6.0 6.0 6.0
9.2 9.3 7.6 6.5 6.5 6.5 6.5 6.5 6.5 6.8 7.5 7.4 7.1 7.8 7.4 7.1 8.3 8.1 7.4 8.2 7.8 7.1 7.2 5.6 5.0 5.0 5.0 5.1 5.2 5.2 5.2 5.2 5.0 5.1 5.2 5.4 5.5 5.6 5.5 5.4 5.5 5.6 5.8 5.9 6.0 6.0 6.0 6.0 6.1
9.1 8.6 8.1 6.5 6.5 6.5 6.5 6.5 6.6 6.6 7.4 7.7 7.5 6.5 7.9 8.8 8.6 8.2 6.1 8.0 8.4 8.1 7.0 5.0 4.8 4.9 5.0 5.1 5.2 5.2 4.9 4.8 4.7 4.7 4.7 4.9 5.0 5.0 4.9 4.8 4.9 5.2 5.6 6.1 6.3 6.2 6.1 6.0 6.0
9.2 8.0 6.5 6.5 6.5 6.5 6.5 6.8 7.0 6.5 6.9 7.3 7.5 6.7 7.3 8.2 8.6 6.4 6.8 8.4 9.1 9.1 7.3 5.3 4.6 4.7 4.8 4.8 4.9 4.5 4.3 4.1 3.9 3.9 3.9 4.0 4.0 4.0 4.2 4.4 4.6 4.8 5.2 5.7 5.8 5.8 5.8 6.0 6.1
7.5 7.6 6.5 6.5 6.5 6.5 6.5 7.2 7.1 6.8 7.2 7.4 7.1 7.1 7.5 8.9 7.4 6.1 7.0 9.5 9.8 9.5 6.5 5.1 3.9 4.2 4.0 4.1 4.0 3.6 3.2 3.0 2.8 2.7 2.7 2.8 3.0 3.3 3.4 3.8 4.1 4.4 4.8 5.0 5.1 5.1 5.2 5.5 5.3
6.9 6.5 6.5 6.5 6.5 6.5 6.5 7.4 6.8 6.8 6.9 6.9 7.8 6.5 7.8 8.4 6.5 6.0 9.2 9.6 9.0 7.1 6.8 6.4 5.3 3.3 3.1 2.8 2.5 2.5 2.4 2.3 2.1 1.9 1.9 2.0 2.3 2.8 3.3 3.4 3.6 3.9 4.2 4.3 4.5 4.5 4.5 4.5 4.5
7.8 6.5 6.5 6.5 6.5 6.5 6.7 7.2 7.6 7.2 6.8 8.2 8.3 6.6 6.9 8.4 5.8 7.1 9.2 8.8 7.4 6.9 6.7 6.3 6.1 6.2 5.8 3.6 1.5 1.5 1.6 1.7 1.8 1.6 1.6 1.9 2.6 3.4 3.2 3.8 2.6 3.2 3.6 3.8 3.9 4.1 4.1 4.2 4.3
8.3 6.5 6.5 6.5 6.5 6.5 7.1 6.6 7.6 8.0 7.4 7.8 8.0 7.9 8.4 8.1 6.5 7.5 8.0 7.4 6.9 6.6 6.2 5.9 5.7 5.3 5.2 4.8 2.8 1.8 1.9 2.5 2.7 2.7 3.3 3.7 6.9 6.8 7.6 2.0 2.5 3.1 3.4 3.7 3.9 4.1 4.2 4.4 4.8
6.9 6.5 6.5 6.5 6.5 6.5 6.8 6.8 7.1 7.0 7.1 7.2 7.6 7.9 8.6 7.3 7.4 8.4 7.8 7.3 7.2 6.5 5.8 5.7 5.3 5.2 5.3 5.6 5.2 5.5 5.5 5.5 5.4 5.0 5.5 7.0 6.3 5.6 6.0 4.3 3.8 3.9 4.2 4.2 4.5 4.5 5.1 5.9 9.7
7.0 6.5 6.5 6.8 7.1 7.2 6.8 6.9 7.5 6.9 6.5 7.3 7.3 7.9 8.4 8.5 8.6 8.5 8.4 7.5 7.4 6.7 5.7 5.1 5.0 5.2 5.8 5.6 6.1 6.7 6.3 6.0 5.9 5.3 5.6 6.7 7.5 6.7 8.4 9.6 9.1 8.6 7.1 8.9 8.5 9.3 9.5 8.1 8.5
6.5 7.0 7.1 7.0 7.2 7.1 6.5 7.3 6.9 7.1 7.0 7.8 8.1 8.3 8.4 8.4 8.5 8.5 8.5 8.5 7.3 5.6 5.1 4.8 4.9 5.1 5.4 5.7 6.4 6.7 7.6 6.6 6.9 5.8 5.5 6.7 7.6 6.7 7.7 8.8 8.1 8.0 7.4 8.0 7.8 9.0 8.9 8.8 9.1
6.5 6.5 7.2 7.4 7.3 7.3 7.4 6.8 6.8 7.1 6.9 7.2 8.1 8.3 8.3 8.4 8.5 8.8 8.9 8.6 6.5 5.4 4.7 4.6 5.1 5.4 5.3 5.6 5.6 6.3 7.2 7.2 6.5 6.2 5.9 5.9 7.0 7.1 8.6 7.3 7.9 7.5 7.1 7.3 7.8 8.4 8.1 9.5 8.9
7.0 6.9 6.9 7.3 7.2 7.3 6.7 6.8 7.1 7.3 7.7 7.8 8.0 8.1 8.3 8.4 8.5 8.6 8.8 8.7 6.9 5.8 5.0 4.5 4.8 5.0 5.1 5.3 5.2 5.8 6.5 6.1 6.7 6.5 5.8 6.3 6.5 7.0 7.1 7.7 7.4 7.1 7.0 7.6 7.7 7.4 7.6 9.6 9.6
7.1 6.5 6.5 6.7 7.0 6.6 7.2 6.5 6.5 7.4 7.8 7.6 7.8 8.1 8.2 8.4 8.6 8.6 8.8 8.6 8.5 6.6 5.6 5.1 4.7 4.7 5.0 5.3 4.9 5.5 5.4 5.9 6.8 6.3 5.8 6.0 6.3 6.8 7.3 6.6 6.6 6.4 6.6 7.0 7.8 7.7 8.5 9.7 7.7
6.5 6.5 6.5 6.5 6.6 6.8 6.8 6.5 6.5 7.6 7.6 7.4 7.6 7.8 8.0 8.2 8.5 8.8 9.0 8.9 8.9 7.7 6.0 5.6 5.5 5.0 5.2 5.1 5.1 5.5 5.2 5.8 6.2 6.7 6.3 5.9 6.4 6.4 6.8 6.8 6.3 5.9 6.1 6.4 7.0 6.9 9.4 9.4 5.3
6.5 6.5 6.5 6.5 6.6 6.5 6.5 6.5 6.5 7.6 7.4 7.3 7.6 7.7 7.9 8.1 8.4 8.7 9.0 8.9 8.7 7.6 6.5 5.7 5.6 5.5 5.3 4.8 5.4 5.5 5.2 5.7 5.8 6.2 5.8 5.6 6.0 6.2 6.7 6.4 6.2 6.1 6.0 6.2 6.2 6.6 7.1 9.3 6.8
6.5 6.5 6.5 6.5 6.5 6.5 6.5 6.5 6.5 7.3 7.3 7.2 7.5 7.7 7.8 7.9 8.1 8.7 8.9 8.9 8.4 8.3 6.7 6.1 5.8 5.6 5.5 5.0 5.6 5.8 5.6 5.5 5.5 5.7 5.3 5.5 5.8 5.7 6.0 6.1 5.7 6.0 6.2 5.8 5.9 6.4 6.5 6.7 6.8
6.5 6.5 6.5 6.5 6.5 6.5 6.5 6.5 6.5 6.9 7.1 7.0 7.3 7.6 7.7 7.8 8.4 8.7 8.8 7.7 7.0 7.1 6.1 5.7 5.8 5.3 5.7 5.6 6.7 7.0 8.2 6.3 6.0 5.2 4.8 5.1 5.4 5.3 5.4 5.9 5.8 5.7 5.5 5.4 5.6 5.9 6.2 6.5 6.1
6.5 6.5 6.5 6.5 6.5 6.5 6.5 6.5 6.5 6.5 6.7 7.1 7.2 7.4 7.6 7.8 8.1 8.4 8.5 7.1 6.2 5.9 5.7 5.6 5.7 5.2 6.2 6.0 6.2 6.7 6.3 6.0 6.0 4.8 4.7 4.9 5.4 4.8 5.2 5.3 5.4 5.2 5.3 5.4 5.2 5.1 5.9 6.1 5.5
6.5 6.5 6.5 6.5 6.5 6.5 6.5 6.5 6.5 6.5 6.9 7.2 7.5 7.7 7.8 7.8 7.9 8.1 8.1 7.1 6.2 5.7 5.3 5.3 5.4 5.4 5.7 5.4 5.0 5.1 5.1 5.3 5.1 4.8 4.9 5.0 5.1 4.5 4.3 4.5 5.2 5.1 4.9 5.2 4.7 4.5 4.9 5.7 6.1
6.5 6.5 6.5 6.5 6.5 6.5 6.5 6.5 6.5 6.5 6.5 6.5 7.0 7.4 7.6 7.8 8.1 8.2 8.0 7.4 5.7 5.8 5.3 5.7 5.2 5.2 5.4 4.8 5.1 5.5 6.2 6.7 5.9 5.7 5.6 5.5 5.0 4.7 4.2 4.3 4.6 4.5 4.7 5.0 5.2 5.1 4.6 4.9 5.9
6.5 6.5 6.5 6.5 6.5 6.5 6.5 6.5 6.5 6.5 6.5 6.5 6.7 7.2 7.6 7.9 8.0 8.1 8.1 6.9 6.3 5.8 4.8 5.0 5.1 5.0 5.2 4.6 5.2 5.3 5.6 5.7 5.5 5.3 5.4 5.7 5.5 4.7 4.7 4.6 4.8 4.9 5.0 5.2 4.8 4.8 4.9 5.1 5.0
6.5 6.5 6.5 6.5 6.5 6.5 6.5 6.5 6.5 6.5 6.5 6.5 6.7 7.3 7.5 7.8 8.0 8.2 8.4 7.6 6.9 5.4 4.5 4.8 5.1 4.9 5.0 4.8 4.8 4.9 5.4 5.2 5.1 5.4 5.7 6.5 6.5 6.0 5.3 5.0 4.9 5.2 5.4 5.1 4.7 4.5 4.2 4.6 4.8
6.5 6.5 6.5 6.5 6.5 6.5 6.5 6.5 6.5 6.5 6.5 6.5 6.5 7.1 7.5 7.8 8.0 8.0 7.6 6.5 6.0 4.5 4.4 4.7 5.0 5.2 5.2 5.1 5.0 5.2 4.8 5.2 5.2 6.0 6.9 7.2 7.2 7.2 6.6 6.0 5.5 5.6 5.5 5.0 4.7 4.3 4.1 4.4 4.4
6.5 6.5 6.5 6.5 6.5 6.5 6.5 6.5 6.5 6.5 6.7 7.0 7.1 7.3 7.5 7.6 7.9 7.8 6.6 5.6 5.3 4.8 4.7 4.9 5.1 6.3 5.7 5.6 5.4 5.0 4.9 5.2 5.6 6.4 6.7 6.8 6.7 6.8 6.8 6.2 5.9 5.7 5.7 5.3 4.8 4.3 4.1 4.6 4.4
6.5 6.5 6.5 6.5 6.5 6.5 6.5 6.5 6.5 6.5 6.5 6.7 6.9 7.1 7.3 7.6 7.8 7.7 6.7 6.1 5.1 4.7 4.6 4.8 5.4 5.5 6.1 5.9 5.7 5.8 5.8 5.8 6.0 6.6 6.6 6.2 6.2 6.1 5.9 5.8 5.8 6.0 6.0 5.7 5.6 5.1 5.1 5.3 5.0
6.5 6.5 6.5 6.5 6.5 6.5 6.5 6.5 6.5 6.5 6.5 6.5 6.5 6.9 7.3 7.6 7.8 7.8 7.3 6.6 6.7 5.4 5.1 5.5 6.0 6.1 5.8 5.8 6.1 6.5 7.3 7.1 6.9 7.1 6.8 6.7 6.7 6.5 6.1 5.9 5.9 5.8 5.9 5.8 5.7 5.3 5.3 5.3 5.1
6.5 6.5 6.5 6.5 6.5 6.5 6.5 6.5 6.5 6.5 6.5 6.5 6.5 7.1 7.4 7.6 7.8 8.0 8.0 6.4 5.9 5.8 5.9 5.8 5.7 5.5 5.4 5.6 6.5 6.5 6.8 6.7 7.2 6.9 6.8 6.6 6.5 6.5 6.4 6.4 6.3 6.4 6.5 6.6 6.3 5.9 5.5 5.3 5.3
6.5 6.5 6.5 6.5 6.5 6.5 6.5 6.5 6.5 6.5 6.5 6.7 6.8 7.2 7.6 7.8 7.9 8.1 7.7 7.0 6.6 6.7 6.4 6.0 5.9 5.6 5.6 6.0 6.3 6.3 6.5 6.6 6.7 6.9 6.4 6.3 6.2 6.3 6.0 5.8 5.7 6.0 6.2 6.4 6.4 6.4 6.8 6.7 6.4
Wind_Speed
10 7 4 4 6 7 17 17 17 4 6 4 6 9 10 11 3 2 5 8 13 12 16 15 14 12 11 11 10 10 12 11 11 11 10 9 9 9 8 6 5 5 5 6 6 6 5 5 6
6 4 4 6 8 14 15 19 12 9 2 8 7 2 8 5 8 11 9 13 12 14 15 17 17 15 14 12 11 11 11 11 10 10 9 9 8 7 7 7 5 5 5 5 5 5 5 5 4
8 5 5 5 11 18 15 19 18 10 9 12 8 5 3 5 12 10 9 12 16 13 17 16 16 14 12 11 11 11 10 10 10 9 9 9 9 8 7 8 8 8 7 6 5 6 6 6 5
4 4 5 11 21 21 22 11 4 12 9 14 10 7 6 7 12 11 9 12 14 12 16 16 15 13 12 11 10 10 10 10 9 9 9 8 8 9 9 8 8 8 8 7 7 7 6 6 6
5 6 12 18 24 21 21 11 7 13 14 14 12 9 8 5 13 15 11 12 14 13 16 15 14 12 12 11 11 11 10 9 9 9 9 9 9 9 9 9 9 9 9 7 7 7 8 7 7
7 8 12 21 23 24 18 17 8 14 16 15 12 13 6 13 13 10 8 12 12 13 14 14 14 13 12 12 11 11 10 9 10 10 10 10 9 9 9 10 10 10 9 8 7 7 8 7 7
15 12 20 22 24 23 22 13 15 15 14 12 7 14 8 15 13 8 10 12 11 12 11 12 12 13 13 12 11 10 9 9 9 9 8 7 7 7 8 9 10 10 9 9 9 8 8 8 8
11 14 25 24 19 26 20 17 16 16 14 6 11 8 7 17 15 10 13 11 10 9 9 9 9 7 9 10 9 9 8 8 7 7 5 3 1 3 6 8 10 9 8 8 8 8 7 5 4
11 12 18 25 26 17 19 19 12 9 9 8 7 4 9 24 15 14 13 10 9 8 8 8 8 8 7 7 6 8 6 4 3 2 4 4 5 5 3 7 6 7 6 6 6 6 5 5 4
15 15 24 20 22 17 21 16 15 8 12 11 9 4 23 22 18 17 15 12 11 10 9 7 7 7 6 5 4 3 4 5 6 7 6 6 5 5 3 3 2 2 3 2 2 3 6 9 5
19 21 17 24 13 10 12 16 17 16 18 15 19 20 23 23 19 17 15 13 12 10 7 7 6 6 5 4 3 3 3 3 4 7 7 5 4 6 4 4 4 4 5 5 6 3 6 7 7
20 23 24 22 4 8 15 15 19 17 6 10 18 21 23 23 20 17 16 14 12 10 9 8 7 6 5 5 3 3 4 4 4 5 6 6 5 4 5 5 5 6 7 7 7 6 6 5 5
12 24 20 25 15 10 15 17 15 18 5 1 20 22 23 21 20 16 15 13 12 11 9 8 7 6 5 5 4 3 3 4 4 5 6 6 5 4 5 5 6 6 7 7 7 7 8 6 6
9 17 23 22 20 15 14 16 14 13 6 10 19 21 22 21 20 17 15 14 12 11 10 8 7 6 5 5 4 3 4 3 4 5 6 5 5 5 5 5 5 7 8 7 6 5 5 4 4
19 20 23 20 24 16 13 18 15 8 11 16 17 19 20 20 19 17 15 14 13 10 10 9 7 6 5 5 5 3 3 2 3 4 5 5 5 4 4 4 5 7 7 7 6 6 5 3 9
8 17 18 26 24 17 12 20 19 12 15 17 18 17 18 19 18 16 14 13 12 12 11 9 6 6 5 4 4 3 3 2 3 3 4 5 5 4 4 4 4 6 6 7 5 4 3 4 3
7 10 26 26 24 17 16 14 19 14 15 17 17 18 17 18 17 15 14 13 12 11 11 9 7 6 5 5 4 3 2 2 3 3 4 4 4 4 4 5 5 5 5 5 4 3 4 2 1
10 15 23 23 21 22 16 14 12 15 16 17 18 18 18 17 16 14 13 11 10 10 10 9 7 6 5 4 3 3 3 2 2 3 3 3 3 3 3 3 4 4 2 3 3 3 2 2 1
17 22 24 24 18 22 18 18 12 14 15 17 18 18 18 16 14 13 12 10 10 10 9 9 8 7 5 3 3 2 1 2 1 2 2 2 1 1 2 3 3 3 3 3 3 3 2 1 2
20 22 21 22 12 21 19 17 12 15 16 17 20 20 19 17 16 13 13 12 11 10 10 9 8 7 5 3 2 1 1 1 1 1 1 1 1 1 1 2 1 2 2 2 3 3 3 1 2
15 22 19 13 13 21 18 16 12 12 13 13 15 16 17 18 17 15 14 13 11 11 10 9 8 7 5 4 3 2 2 1 2 2 2 4 3 2 1 0 1 1 2 2 2 2 3 3 1
11 18 18 18 17 14 19 11 16 17 15 14 14 15 16 17 15 15 14 14 12 10 9 9 8 7 6 6 4 3 1 1 1 0 1 3 5 5 4 3 3 2 2 2 2 2 3 2 3
4 1 16 19 20 16 20 6 17 18 17 18 17 16 16 14 14 15 14 14 13 10 9 8 9 8 6 6 5 4 4 2 1 2 4 5 5 6 6 6 5 4 3 2 3 3 2 2 3
7 6 1 15 13 9 19 11 17 17 19 18 18 18 16 15 15 13 12 11 11 9 8 8 10 8 8 7 7 6 5 3 3 3 4 4 4 4 7 7 6 6 5 3 3 3 4 4 4
9 11 4 6 5 9 6 5 4 19 18 21 20 19 17 15 14 13 12 11 9 10 10 9 10 9 9 8 7 7 6 5 4 4 4 4 3 3 4 5 5 5 6 6 5 4 5 5 5
9 8 4 6 6 6 3 8 6 11 5 5 11 16 15 14 12 12 11 10 9 10 10 10 10 10 9 8 8 6 6 4 3 4 4 4 3 3 4 5 7 8 8 7 7 5 5 6 5
5 5 3 4 4 8 7 5 6 8 7 9 11 12 13 14 12 11 10 9 9 9 10 9 9 8 8 7 6 6 6 6 5 5 5 4 4 4 5 7 6 7 8 8 6 5 7 7 7
2 5 2 3 5 9 7 12 4 11 12 12 13 14 14 13 13 11 10 9 8 9 8 7 7 7 6 5 5 4 5 4 4 5 5 5 5 5 6 6 7 7 7 7 7 7 8 9 7
3 4 3 4 3 2 8 9 5 9 13 14 13 14 14 14 13 11 10 9 9 8 8 7 6 6 4 3 4 4 3 3 5 4 3 3 4 5 6 6 7 8 8 8 8 9 10 10 10
6 7 9 3 2 1 3 4 2 4 11 12 13 14 14 13 12 11 11 11 10 9 8 7 6 6 5 4 4 3 2 3 2 1 2 3 4 4 5 6 7 7 8 8 9 9 9 10 11
Wind_Direction
273 256 263 225 219 228 237 235 242 227 218 187 235 183 188 12 188 68 128 117 117 123 124 129 121 117 113 110 108 97 90 81 74 68 60 49 45 42 41 44 49 37 25 19 16 15 13 14 14
277 262 226 234 239 217 229 234 218 222 217 152 177 109 166 107 77 126 113 130 94 89 111 113 106 104 98 91 89 86 81 77 73 64 56 50 40 36 37 40 35 27 15 4 2 6 6 2 0
261 262 223 218 230 231 224 223 228 198 135 167 142 271 115 98 112 126 127 127 113 103 99 97 94 91 96 97 91 87 83 79 72 65 53 46 42 38 35 40 38 34 27 24 29 38 29 22 9
211 199 256 236 226 223 232 235 216 182 185 196 169 151 91 338 146 126 144 124 115 110 107 95 98 100 99 93 91 89 84 78 67 56 50 44 41 37 34 30 24 17 11 13 18 19 17 11 2
233 236 232 229 236 235 223 216 235 179 185 197 195 144 116 107 106 129 150 155 140 126 116 101 100 100 97 90 93 89 81 73 62 51 44 37 33 34 32 29 26 21 16 10 7 8 0 352 357
223 239 232 229 226 233 229 225 212 207 204 182 194 139 123 133 137 144 181 145 130 115 117 111 98 98 95 94 90 86 77 67 60 52 45 41 38 33 32 29 25 23 22 23 18 18 11 17 19
241 222 236 244 225 221 220 230 214 213 194 182 186 167 125 155 148 165 148 124 124 129 126 124 116 108 96 89 86 80 71 62 54 47 40 35 38 36 34 36 30 28 28 32 27 27 31 37 37
243 256 244 240 239 227 209 219 222 220 199 156 186 178 171 160 157 156 136 135 132 126 123 120 123 121 122 106 91 85 73 64 59 50 27 357 224 76 61 16 33 28 28 28 29 25 24 27 42
232 240 238 235 234 243 219 208 209 239 155 176 177 350 135 137 152 149 144 143 137 131 124 123 123 119 111 110 115 133 114 110 145 118 28 301 13 17 60 58 31 23 21 21 17 6 345 304 244
221 233 238 241 237 236 229 199 199 191 180 180 172 154 129 144 162 157 157 154 152 141 131 127 124 119 122 119 116 93 81 50 36 31 15 17 25 25 3 94 84 46 356 285 322 312 287 272 331
222 239 234 252 261 260 285 211 193 216 199 194 182 151 151 159 168 166 160 157 152 139 135 128 127 124 130 106 116 90 70 45 42 34 16 18 22 358 17 14 19 357 360 1 343 349 7 358 350
241 233 242 254 231 279 256 255 221 216 191 228 169 161 160 167 171 170 159 155 147 150 139 133 130 127 113 121 86 89 63 48 34 40 24 7 16 17 7 16 9 6 2 359 6 360 0 349 354
253 249 225 243 254 258 267 254 215 216 96 282 140 160 166 168 168 165 154 150 152 146 144 136 135 130 123 107 97 66 70 55 45 38 28 20 21 23 14 30 16 16 0 7 1 8 355 359 358
258 244 247 225 244 249 252 238 222 214 145 170 155 167 168 171 166 160 158 154 159 150 149 143 137 127 127 110 92 72 67 58 38 41 30 30 38 18 22 21 24 18 8 2 5 4 358 359 7
236 254 251 236 228 234 234 237 209 163 168 161 169 170 168 171 165 165 160 156 159 157 149 147 138 134 126 125 116 113 85 51 43 46 49 37 37 28 16 38 24 13 7 359 12 7 7 40 44
268 243 254 210 223 217 219 222 210 167 170 169 169 171 170 170 170 163 159 156 154 152 157 146 144 148 141 127 130 127 111 76 49 42 51 39 29 27 39 40 39 7 10 6 0 4 352 64 46
226 276 227 201 207 213 208 230 156 172 179 169 168 168 172 166 172 162 160 156 162 159 152 154 153 157 152 133 153 134 119 76 63 46 57 38 33 21 46 40 39 20 14 18 353 20 343 46 124
247 250 214 201 189 213 204 229 152 174 182 173 170 168 172 170 171 161 163 156 161 161 158 152 161 162 163 139 148 154 135 136 57 54 65 46 45 31 38 60 40 9 23 22 0 355 5 359 15
248 245 199 200 184 196 206 215 178 179 185 174 171 170 171 172 168 163 160 163 164 167 166 164 171 163 175 169 175 191 172 113 150 100 86 62 34 33 44 50 35 10 28 16 350 325 320 10 336
240 242 197 199 164 195 202 211 178 181 182 178 173 174 173 169 170 167 171 173 178 175 178 176 179 169 196 162 118 33 76 82 18 115 165 184 253 357 77 35 30 5 350 1 354 352 322 307 5
244 219 192 167 187 205 184 191 178 182 185 179 181 175 170 176 172 175 178 182 181 184 187 182 180 179 180 148 137 156 124 191 187 183 205 220 234 210 202 247 300 303 314 337 335 353 346 335 30
229 209 187 173 180 182 189 188 197 181 183 188 184 181 182 181 180 177 182 186 188 190 181 186 176 178 183 165 186 200 251 254 93 236 223 224 227 223 222 246 249 270 292 295 318 344 342 324 316
251 216 222 172 196 173 191 248 184 175 193 191 187 189 187 179 183 182 185 190 189 183 180 176 178 184 178 182 202 193 219 206 206 233 246 245 230 233 232 238 245 258 261 279 299 297 284 303 298
274 180 214 192 208 186 188 207 174 189 196 184 189 186 186 178 181 182 179 183 185 175 174 179 182 186 185 193 197 209 220 220 221 231 246 246 234 226 230 235 248 256 259 253 246 247 257 265 263
219 168 157 165 197 188 184 203 49 178 191 192 184 186 182 176 175 176 176 182 182 176 183 181 186 190 192 199 202 212 221 233 244 258 257 265 261 244 244 230 241 245 241 243 245 245 245 247 248
197 192 157 189 167 144 168 216 111 99 83 72 170 176 166 165 176 168 174 177 175 178 185 183 189 198 196 202 210 212 218 234 243 255 261 264 271 281 273 256 249 251 252 246 242 249 248 251 250
171 210 97 283 291 159 169 163 131 145 144 144 142 147 161 166 158 154 149 154 154 164 176 181 188 193 203 207 212 215 218 225 243 247 244 257 273 272 272 265 264 263 258 256 255 254 258 252 245
298 124 28 204 222 170 179 186 148 179 170 160 159 163 159 155 152 146 142 139 138 138 146 160 178 186 194 208 217 229 226 228 242 248 256 267 272 266 268 270 268 267 265 263 258 255 255 257 255
164 204 198 280 299 234 160 194 21 176 174 166 161 156 157 155 154 147 138 139 137 136 136 144 153 157 165 193 208 213 219 227 241 254 276 290 303 295 289 289 287 282 277 269 258 252 254 258 261
306 325 314 261 226 320 310 114 43 93 162 162 157 154 155 152 147 145 144 146 142 136 135 135 129 120 118 131 136 129 151 193 219 274 341 332 310 313 309 306 298 293 290 288 285 284 282 277 274